Regional Weather Roundup
Issued by NWS Newport/Morehead, NC

Current Version | Previous Version | Text Only | Print | Product List | Glossary On
Versions: 1 2 3 4 5 6 7 8 9 10 11 12 13 14 15 16 17 18 19 20 21 22 23 24 25 26 27 28 29 30 31 32 33 34 35 36 37 38 39 40 41 42 43 44 45 46 47 48 49 50
000
ASUS42 KMHX 281313
RWRMHX
WEATHER ROUNDUP FOR EASTERN NORTH CAROLINA
NATIONAL WEATHER SERVICE NEWPORT/MOREHEAD CITY NC
900 AM EDT SUN MAY 28 2017

NOTE: "FAIR" INDICATES FEW OR NO CLOUDS BELOW 12,000 FEET
WITH NO SIGNIFICANT WEATHER AND/OR OBSTRUCTIONS TO VISIBILITY

NCZ015>017-031-032-045>047-102-103-281400-
NORTH COAST

CITY           SKY/WX    TMP DP  RH WIND       PRES   REMARKS
EDENTON        CLOUDY    77  71  81 CALM      29.85R
ELIZABETH CITY MOSUNNY   75  69  81 SE7       29.85R
KITTY HAWK     MOSUNNY   74  64  69 CALM      29.85R
MANTEO         PTSUNNY   75  66  75 SE6       29.86R

$$

NCZ045>047-081-094-103-104-281400-
CENTRAL COAST

CITY           SKY/WX    TMP DP  RH WIND       PRES   REMARKS
FRISCO         SUNNY     78  71  79 SW7       29.86R

$$

NCZ095-097-098-100-101-281400-
SOUTHERN COAST

CITY           SKY/WX    TMP DP  RH WIND       PRES   REMARKS
BEAUFORT       CLOUDY    78  74  87 SW13      29.87R
CEDAR ISLAND   NOT AVBL
JACKSONVILLE   PTSUNNY   78  70  76 SW5       29.86R
PINEY ISLAND   CLOUDY   N/A N/A N/A SW10      29.86
WILMINGTON     MOSUNNY   79  69  71 SW8       29.87R


$$

NCZ011>013-027>030-043-044-078>080-089-090>093-098-281400-
COASTAL PLAIN

CITY           SKY/WX    TMP DP  RH WIND       PRES   REMARKS
AHOSKIE        NOT AVBL
CLINTON        MOSUNNY   77  69  75 SW6       29.87R
ELIZABETHTOWN  MOSUNNY   77  67  70 SW7       29.88R
GOLDSBORO      CLOUDY    76  73  88 W5        29.84R
GREENVILLE     CLOUDY    73  72  94 S3        29.87S
HAVELOCK       MOSUNNY   80  69  69 SW9       29.87R
KENANSVILLE    MOSUNNY   77  68  73 CALM      29.86R
KINSTON        CLOUDY    77  70  78 CALM      29.86R
NEW BERN       CLOUDY    77  71  82 SW5       29.87R
RICHLANDS      CLOUDY    78  69  73 S7        29.86R
ROCKY MOUNT    PTSUNNY   73  70  90 S5        29.84R
WASHINGTON     MOSUNNY   73  69  87 CALM      29.85R
WHITEVILLE     SUNNY     78  68  72 SW5       29.88R

$$

AMZ130-135-150-152-154-156-158-170-250-252-270-ANZ085-086-088-633-658-670-281400-
MARINE OBSERVATIONS

STATION/POSITION TIME  TEMP    WIND        PRES    WAVE   SWELL
                       AIR SEA DIR/SP/G            HT/PER HT/PER
                 (UTC) (F)     (DEG/KT/KT) (MB)    (FT/S) (FT/S)
CHESAPEAKE LIGHT NOT AVBL
64 E VA BEACH    1250   66 64   90/  2/  4 1011.7    3/ 5   2/ 5
DUCK             1248   71 67  140/  6/  6 1010.6
2 E DUCK         1300      68                N/A     1/ 7
OREGON INLET     1248           60/  5/  6   N/A
13E OREGON INLT  1248      67                N/A     3/ 6   3/ 6
HATTERAS CG      1248   76 73  210/  6/  9 1010.8
DIAMOND BUOY     1250   76 77  240/ 14/ 16 1011.2    3/ 6   2/ 6
CAPE LOOKOUT     1300   77     240/  8/ 11 1011.5
BEAUFORT LAB     1248   77 72  230/  5/  9 1010.8
30 SE NEW RVR IN 1208   76     240/ 14/ 17 1011.1
30 SE NEW RVR IN 1243      76                N/A     4/ 5
27 SE WRIGHTSVLE 1208   75 77  220/ 14/ 19 1010.6
5 SE WRIGHTSVLE  1208   76 75  220/  8/ 14 1010.9
225 S CAPE HAT   1250   76 77  230/ 14/ 17 1014.8    3/ 5   2/ 8
41 SE CHARLESTON 1250   76 75  220/ 12/ 14 1013.0    3/ 5   2/ 7

$$



USA.gov is the U.S. government's official web portal to all federal, state and local government web resources and services.